Location: Newark
(48.0000°N, 67.0000°E)
Time: 09:13:29
(UTC+00:00)

Vanguard 2 Rocket - All Passes

Search period start: 17 February 2020 00:00
Search period end: 27 February 2020 00:00
Orbit: 554 x 3326 km, 32.9° (Epoch: 16 February)

Date Brightness Start Highest point End Pass type
(mag) Time Alt. Az. Time Alt. Az. Time Alt. Az.
17 Feb - 14:38:17 10° S 14:47:12 17° SSE 14:54:15 10° ESE visible
17 Feb - 16:50:10 10° SW 17:01:27 28° S 17:08:52 10° ESE visible
17 Feb - 19:05:58 10° WSW 19:14:46 28° S 19:20:28 10° SE visible
17 Feb - 21:23:18 10° WSW 21:26:41 14° SSW 21:29:28 10° S night (unlit)
18 Feb - 13:40:03 10° S 13:46:45 13° SSE 13:52:34 10° ESE visible
18 Feb - 15:49:07 10° SSW 16:01:15 27° SSE 16:09:35 10° ESE visible
18 Feb - 18:04:20 10° WSW 18:15:09 32° S 18:21:57 10° ESE visible
18 Feb - 20:21:15 10° WSW 20:27:41 21° SSW 20:32:13 10° SSE night (unlit)
19 Feb - 14:48:29 10° SSW 15:00:50 24° SSE 15:09:52 10° ESE visible
19 Feb - 17:02:40 10° SW 17:15:13 34° S 17:23:09 10° ESE visible
19 Feb - 19:19:26 10° WSW 19:28:25 28° SSW 19:34:15 10° SE visible
20 Feb - 13:48:35 10° S 14:00:15 21° SSE 14:09:27 10° ESE visible
20 Feb - 16:01:08 10° SW 16:14:58 33° S 16:24:03 10° ESE visible
20 Feb - 18:17:33 10° WSW 18:28:51 34° S 18:35:52 10° SE visible
20 Feb - 20:35:25 10° WSW 20:41:05 18° SSW 20:45:18 10° S night (unlit)
21 Feb - 12:49:55 10° S 12:59:36 16° SE 13:07:56 10° ESE daylight
21 Feb - 14:59:55 10° SW 15:14:27 31° SSE 15:24:35 10° ESE visible
21 Feb - 17:15:35 10° WSW 17:28:55 37° S 17:37:12 10° ESE visible
21 Feb - 19:33:10 10° WSW 19:41:55 26° SSW 19:47:45 10° SSE visible
22 Feb - 11:54:09 10° SSE 11:59:00 11° SE 12:03:35 10° ESE daylight
22 Feb - 13:59:14 10° SSW 14:13:43 28° SSE 14:24:38 10° ESE visible
22 Feb - 16:13:42 10° SW 16:28:38 38° S 16:38:13 10° ESE visible
22 Feb - 18:30:59 10° WSW 18:42:25 33° SSW 18:49:36 10° SE visible
22 Feb - 20:50:17 10° WSW 20:54:18 13° SW 20:57:35 10° SSW night (unlit)
23 Feb - 12:59:21 10° SSW 13:12:54 24° SSE 13:24:01 10° ESE daylight
23 Feb - 15:12:04 10° SW 15:28:02 37° SSE 15:38:54 10° ESE visible
23 Feb - 17:28:47 10° WSW 17:42:32 38° S 17:51:04 10° SE visible
23 Feb - 19:47:10 10° WSW 19:55:15 22° SSW 20:00:52 10° SSE visible
24 Feb - 12:00:38 10° S 12:12:07 19° SE 12:22:19 10° ESE daylight
24 Feb - 14:10:53 10° SW 14:27:11 35° SSE 14:39:10 10° ESE visible
24 Feb - 16:26:39 10° WSW 16:42:15 41° S 16:52:12 10° ESE visible
24 Feb - 18:44:38 10° WSW 18:55:51 30° SSW 19:03:05 10° SSE visible
25 Feb - 11:04:11 10° SSE 11:11:28 13° SE 11:18:25 10° ESE daylight
25 Feb - 13:10:20 10° SSW 13:26:12 31° SSE 13:38:55 10° E visible
25 Feb - 15:24:43 10° SW 15:41:36 42° S 15:52:58 10° ESE visible
25 Feb - 17:42:13 10° WSW 17:56:03 37° SSW 18:04:44 10° SE visible
25 Feb - 20:01:41 10° WSW 20:08:22 17° SW 20:13:24 10° S visible
26 Feb - 12:10:38 10° SSW 12:25:13 26° SSE 12:37:58 10° E daylight
26 Feb - 14:23:11 10° SW 14:40:39 41° SSE 14:53:22 10° ESE visible
26 Feb - 16:39:52 10° WSW 16:55:48 42° S 17:05:59 10° SE visible
26 Feb - 18:58:33 10° W 19:09:05 26° SSW 19:16:12 10° SSE visible
